FENGYUN 1C DEB, 35160

Orbit data source: Space-Track

FENGYUN 1C DEB, 35160 is space debris in SSO originally from a launch on Mon, 10 May 1999 UTC launched from the Taiyaun Space Center, China (TSC). Fengyun 1C debris stems from the Chinese weather satellite Fengyun-1C, which was intentionally destroyed by a Chinese anti-satellite missile in 2007. This event dramatically increased the amount of space debris, with thousands of trackable fragments posing hazards to satellites and human spaceflight. The Fengyun 1C debris cloud has become a focal point in discussions about space sustainability and the need for international regulations to prevent the creation of new debris.

Loading next visibility...
Identifier
35160, 1999-025DMQ
Orbit
SSO
Country
Flag of CNCN / PRC
Related business
Manufacturer
Unknown
Mission
Spacecraft
Bus & Motor
Unknown
Mass
Unknown
Launch date (UTC)
1999-05-10 (26 years ago)
Launch vehicle
Unknown
Launch site
Taiyaun Space Center, China (TSC)
Object type
Payload
Rocket body
Debris
Shape & HBR
Unknown shape, 0.1 m
Radar Cross Section
Small (<0.1 m²)

Expand to show TLE details & history
Last TLE update: 6 days ago

TLE from 6 days ago
0 FENGYUN 1C DEB
1 35160U 99025DMQ 25303.04443013  .00001076  00000-0  32745-3 0  9990
2 35160  99.1533  54.7630 0176788   7.4370 352.9373 14.35803755643040
Epoch: 2025-10-30T01:03Z
TLE epoch observation values (Epoch: 2025-10-30T01:03:58.763Z)
Latitude
-0.00003°
Longitude
0.15929°
Altitude
649.875 km
Speed
7.599 km/s
True Right ascension
03h 39m 03s
True Declination
0° 00' 00"
Sunlit
Object was in full shadow at epoch
Visualization orbit readout
Latitude
Unknown
Longitude
Unknown
Altitude
Unknown
Speed
Unknown
Apparent Right ascension
Unknown
Apparent Declination
Unknown
Sunlit
N/A
Visualization observer readout
Local Sidereal Time
07:19:44
Azimuth
Unknown
Elevation
Unknown
Doppler factor
Unknown
Orbital elements
Apogee altitude
895.917 km
Perigee altitude
643.192 km
Semi-major axis
7,147.692 km
Eccentricity
0.01768
Inclination
99.1533°
RAAN
54.763°
Arg. of periapsis
7.437°
True anomaly
352.68263°
Mean anomaly
352.9373°
Eccentric anomaly
352.81053°
Mean motion
3.59165 °/min
Orbital period
100.23 mins
BSTAR
0.00032745
Loading maneuver chart data...
Computing Atmospheric mass density...

Documentation

Showing up to 5 results
|